Theta_e
303 303 302 302 302 301 301 301 300 300 299 298 298 297 297 297 296 296 296 296 296 296 296 296 296 296 296 296 296 296 296 295 295 295 295 295 295 295 294 294 294 294 294 294 293 293 293 292 291 290 289 289 289 288 288 288 288 288 288 289 290 290 290 290 291 291 292 292 292 293 293 293 293 293 293 293 293 293 293 293 293 293 293 293 293 293
302 302 302 301 301 301 301 300 300 299 299 298 297 297 296 296 295 295 295 295 295 295 295 295 295 295 295 295 295 295 295 295 295 295 295 295 294 294 293 293 292 292 292 292 291 291 290 289 288 288 288 288 288 288 288 288 288 289 289 290 290 290 290 290 290 290 290 291 291 291 291 291 291 292 292 292 291 291 291 291 291 292 292 292 292 292
302 302 301 301 301 300 300 299 299 299 298 298 297 297 296 296 295 295 295 295 295 295 295 295 295 295 295 295 295 295 295 295 295 294 294 293 292 291 290 289 289 289 289 288 288 288 287 287 286 286 287 287 287 288 288 288 288 289 289 289 290 290 290 290 289 289 289 289 289 289 289 289 289 290 290 290 290 290 290 290 290 290 291 291 291 291
302 301 301 300 300 300 299 299 299 298 298 298 298 298 297 297 296 296 296 295 295 295 295 295 295 295 295 295 295 295 294 294 293 293 291 290 289 288 288 287 287 287 287 286 286 286 286 286 286 286 286 287 287 288 288 288 288 289 289 290 290 290 290 290 290 290 290 289 289 289 289 289 289 289 289 289 289 289 289 289 290 290 290 290 290 290
301 301 300 300 299 299 299 299 299 299 298 298 298 298 298 297 297 296 296 296 295 295 295 295 295 294 294 294 294 293 293 292 291 290 289 288 287 287 287 286 286 286 286 286 285 285 285 285 286 286 287 287 288 288 289 289 289 289 290 290 290 290 290 290 290 290 290 289 289 289 289 289 289 289 289 289 289 289 289 289 289 289 289 289 290 290
300 300 299 299 299 298 298 298 298 298 298 298 298 297 297 297 297 296 296 295 295 295 294 294 294 293 293 293 292 292 291 290 289 288 287 287 286 286 286 286 286 286 285 285 285 285 285 286 286 287 288 288 289 289 289 290 290 290 290 289 289 289 289 289 289 289 289 289 289 289 289 289 289 289 289 289 289 289 288 288 288 288 289 289 289 289
299 299 298 298 298 298 297 297 297 297 297 297 297 297 296 296 296 295 295 295 294 294 294 293 293 292 292 292 291 290 289 288 287 287 287 286 286 286 286 286 286 285 285 285 285 285 286 286 287 287 288 289 289 289 289 289 289 289 289 289 289 289 289 289 289 288 288 288 288 288 288 288 288 288 288 288 288 288 288 288 288 288 288 289 289 289
298 298 297 297 297 297 297 297 296 296 296 296 296 296 296 295 295 295 295 294 294 293 293 292 292 292 291 291 290 289 288 288 287 287 287 287 286 286 286 286 285 285 285 285 285 285 285 286 287 287 288 288 288 288 289 289 289 289 289 289 288 288 288 288 288 288 288 288 288 288 288 288 288 288 288 288 288 288 288 288 288 288 288 289 289 289
298 297 297 297 297 297 296 296 296 296 296 295 295 295 295 294 294 294 293 293 292 292 292 291 291 290 290 290 289 288 288 287 287 287 287 286 286 286 286 285 285 285 285 284 284 285 285 285 286 287 287 288 288 288 288 288 288 288 288 288 288 288 288 287 287 287 287 287 287 287 287 287 288 288 288 288 288 288 288 288 288 289 289 289 289 289
297 297 297 296 296 296 296 296 295 295 295 295 294 294 293 293 292 292 291 291 291 291 290 290 290 289 289 288 288 288 287 287 287 287 286 286 286 285 285 285 285 285 284 284 284 284 285 285 285 286 286 287 287 287 287 287 287 287 287 287 287 287 287 287 287 287 287 287 287 287 287 288 288 288 288 288 288 288 289 289 289 289 289 289 289 289
296 296 296 296 296 295 295 295 295 294 294 294 293 292 292 291 291 291 290 290 289 289 289 289 289 288 288 288 287 287 287 287 287 286 286 285 285 285 284 284 284 284 284 284 284 284 285 285 285 286 286 286 286 287 287 287 287 287 287 287 287 287 287 287 287 287 287 287 288 288 288 288 288 288 288 288 289 289 289 289 289 289 289 289 289 289
295 295 295 294 294 294 294 293 293 293 293 292 292 291 291 290 290 290 290 289 289 288 288 288 288 288 288 287 287 287 287 286 286 286 285 285 285 284 284 284 284 284 284 284 284 285 285 285 286 286 286 286 286 286 286 286 286 286 286 287 287 287 287 287 287 287 288 288 288 288 288 288 288 289 289 289 289 289 289 289 289 289 289 289 289 289
294 294 293 293 292 292 292 292 291 291 291 290 290 290 289 289 289 289 289 288 288 288 288 288 287 287 287 287 287 286 286 286 285 285 285 285 284 284 284 284 284 284 284 284 285 285 285 286 286 286 286 286 286 286 286 286 286 286 287 287 287 287 287 287 287 288 288 288 288 288 288 288 289 289 289 289 289 289 289 289 289 289 289 289 289 289
293 292 292 291 291 290 290 290 290 289 289 289 289 289 289 288 288 288 288 288 287 287 287 287 287 287 287 286 286 286 286 285 285 285 285 284 284 284 284 284 284 284 285 285 285 285 286 286 286 286 286 286 286 286 286 286 286 286 287 287 287 287 287 287 288 288 288 288 288 288 288 289 289 289 289 289 289 289 289 289 289 289 289 289 289 289
292 291 291 290 290 290 289 289 289 289 289 288 288 288 288 288 288 287 287 287 287 287 287 287 286 286 286 286 286 285 285 285 285 285 284 284 284 284 284 284 284 285 285 285 285 286 286 286 286 286 286 286 286 286 286 286 286 287 287 287 287 287 288 288 288 288 288 288 288 288 288 288 289 289 289 289 289 289 289 289 289 289 289 289 289 289
291 291 290 290 290 289 289 289 289 288 288 288 288 288 287 287 287 287 287 287 287 286 286 286 286 286 286 285 285 285 285 285 284 284 284 284 284 284 284 284 285 285 285 285 286 286 286 286 286 286 286 286 286 286 286 286 287 287 287 287 287 288 288 288 288 288 288 288 288 288 288 288 288 288 288 288 288 289 289 289 289 289 289 289 289 289
290 290 290 289 289 289 288 288 288 288 288 287 287 287 287 287 287 287 287 287 287 286 286 286 286 286 285 285 285 284 284 284 284 284 284 284 284 284 284 285 285 285 286 286 286 286 286 286 286 286 286 286 286 286 287 287 287 287 287 287 288 288 288 288 288 288 288 288 288 288 288 288 288 289 289 289 289 289 289 289 289 289 289 289 289 289
289 289 288 288 288 288 287 287 287 287 287 287 287 287 287 287 287 287 287 287 286 286 286 286 285 285 285 285 284 284 284 284 284 284 284 284 284 284 285 285 285 286 286 286 286 286 286 286 286 286 287 287 287 287 287 287 287 287 287 287 288 288 288 288 288 288 288 289 289 289 289 289 289 289 289 289 289 289 289 289 289 289 289 289 289 289
287 287 287 287 287 287 287 287 287 287 287 287 287 287 287 287 287 287 287 286 286 286 286 285 285 285 285 285 284 284 284 284 283 284 284 285 285 285 285 285 286 286 286 286 286 286 286 286 286 287 287 287 287 287 287 287 287 287 287 288 288 288 288 288 288 289 289 289 289 289 289 289 289 289 289 289 289 289 289 289 289 289 289 289 289 289
286 286 286 286 286 286 286 286 286 286 286 286 286 286 286 286 286 286 286 286 286 286 285 285 285 285 284 284 284 284 283 283 283 284 284 285 286 286 286 286 286 286 286 286 286 286 286 286 287 287 287 287 287 287 287 287 287 287 288 288 288 288 288 289 289 289 289 289 289 289 289 289 289 289 289 289 289 289 289 289 289 289 289 289 289 289
286 286 286 286 286 286 286 286 286 286 286 286 285 285 285 285 285 285 285 285 285 285 285 285 284 284 284 284 283 283 283 283 283 284 285 286 286 286 286 286 286 286 286 286 286 286 286 287 287 286 286 286 287 287 287 287 287 287 288 288 288 288 289 289 289 289 289 289 289 289 289 289 289 289 289 289 289 289 289 289 289 289 289 289 289 289
285 285 285 285 285 285 285 285 285 285 285 285 285 285 285 285 285 285 284 284 284 284 284 284 284 284 283 283 283 283 283 283 284 284 285 286 287 287 286 286 286 287 287 286 286 286 286 287 286 286 286 287 287 287 287 287 287 288 288 288 288 288 289 289 289 289 289 289 289 289 289 289 289 289 289 289 289 289 289 289 290 289 290 290 290 290
285 285 285 285 285 285 285 284 284 284 284 284 284 284 284 284 284 284 284 284 284 284 283 283 283 283 283 283 283 283 283 284 284 285 286 286 287 287 286 286 286 287 287 287 287 287 287 287 286 287 287 287 287 287 287 288 288 288 288 288 288 288 288 289 289 289 289 289 289 289 289 289 289 290 290 290 290 290 290 290 290 290 290 290 290 290
284 284 284 284 284 284 284 284 284 284 284 284 284 284 284 284 283 283 283 283 283 283 283 283 283 283 283 283 283 283 284 284 285 285 286 286 287 287 287 286 287 287 287 287 287 287 287 287 287 287 287 287 287 287 288 288 288 288 288 288 288 288 288 288 289 289 289 289 289 289 289 289 290 290 290 290 290 290 290 290 290 290 290 290 290 290
284 284 284 284 284 284 284 284 284 284 284 284 284 284 283 283 283 283 283 283 283 283 283 283 283 283 283 284 284 285 285 285 285 285 286 286 287 287 287 287 287 287 287 287 287 287 287 287 287 287 287 287 287 288 288 288 288 288 288 288 288 288 288 288 289 289 289 289 289 289 289 289 289 290 290 290 290 290 290 290 290 290 290 290 290 290
284 284 284 284 284 284 283 283 284 284 283 283 283 283 283 283 283 283 283 283 283 282 282 283 283 284 284 285 285 286 285 285 285 285 286 286 286 287 287 287 287 287 288 288 287 287 287 287 287 287 288 288 288 288 288 288 288 288 288 288 288 288 288 289 289 289 289 289 289 289 289 289 289 289 290 290 290 290 290 290 290 290 290 290 290 290
284 284 284 283 283 283 283 283 283 283 283 283 283 283 283 283 283 283 283 282 282 282 282 283 283 284 285 285 286 286 286 285 285 286 286 286 286 287 287 287 287 287 288 288 288 288 288 288 288 288 288 288 288 288 288 288 288 288 288 288 288 288 289 289 289 289 289 289 289 289 289 289 289 290 290 290 290 290 290 290 290 290 290 290 290 290
284 283 283 283 283 283 283 283 283 283 283 282 282 282 282 282 282 282 282 282 282 282 283 283 284 285 285 286 286 286 286 285 285 286 286 286 286 286 287 287 287 287 288 288 288 288 288 288 288 289 289 289 289 289 289 288 288 288 288 289 289 289 289 289 289 289 289 289 289 289 289 289 289 289 290 290 290 290 290 290 290 290 290 290 290 290
283 283 283 283 283 283 283 282 282 282 282 282 282 281 281 281 281 282 282 282 282 282 283 284 284 285 285 286 286 286 286 285 285 286 286 286 286 286 287 287 287 287 288 288 289 289 289 289 289 289 289 289 289 289 289 289 289 289 289 289 289 289 289 289 289 289 289 289 289 289 289 289 289 289 289 289 290 290 290 290 290 289 290 290 290 290
283 282 282 282 282 282 282 282 282 282 282 282 281 281 281 281 281 281 281 282 282 283 283 284 285 285 285 285 286 286 286 286 285 286 286 286 286 286 287 287 287 287 288 288 289 290 290 289 289 289 289 289 289 289 289 289 289 289 289 289 289 289 289 289 289 289 289 289 289 289 289 289 289 289 289 289 289 289 289 289 289 289 289 289 290 290
282 282 282 282 282 282 282 282 282 282 281 281 281 281 281 281 281 282 282 283 283 284 284 284 284 285 285 285 285 286 286 286 285 286 286 286 286 287 287 287 288 288 288 288 288 289 290 290 290 289 289 289 289 289 289 289 289 289 289 289 289 289 289 288 288 288 289 289 289 289 289 289 289 289 289 289 289 289 289 289 289 289 289 289 289 289
282 281 281 281 281 281 281 281 281 281 281 281 281 281 281 281 282 282 283 283 284 284 284 284 284 285 285 285 285 285 286 286 286 286 286 286 287 287 287 288 288 288 288 288 288 288 288 290 290 290 290 290 290 290 289 289 289 289 289 289 289 289 289 289 289 289 289 289 289 289 289 289 289 289 289 289 289 289 288 288 288 288 288 288 289 289
281 281 281 281 281 281 281 281 281 281 281 281 281 281 281 282 282 283 283 284 284 284 284 284 284 285 285 285 285 286 286 286 286 286 286 286 287 287 288 288 288 288 288 288 288 288 288 289 290 290 290 290 290 290 290 290 289 289 289 290 290 290 289 289 289 289 289 289 289 289 289 288 288 288 288 288 288 288 288 288 288 288 288 288 288 288
281 281 281 281 281 281 281 281 281 281 281 281 281 281 282 282 283 283 284 284 284 284 284 284 284 285 285 285 286 286 286 286 286 286 286 286 287 287 288 288 288 288 288 288 288 288 288 289 289 290 290 290 290 290 290 290 290 289 289 290 290 290 289 289 289 289 289 289 289 289 288 288 288 288 288 288 288 288 288 288 288 288 287 287 288 288
281 281 281 281 281 281 281 281 281 281 281 281 281 282 282 283 283 284 284 284 284 284 284 285 285 285 285 285 286 286 287 286 286 286 286 286 286 287 287 288 288 288 288 288 288 288 289 289 289 289 290 290 290 290 290 289 289 289 289 289 289 289 289 289 289 289 289 289 289 288 288 288 288 288 288 288 288 288 288 288 288 287 287 287 287 287
281 281 281 281 281 281 281 281 281 281 281 281 282 282 283 284 284 284 284 284 284 285 285 285 285 285 285 285 286 286 286 286 286 286 286 286 286 287 287 287 287 287 287 287 288 288 288 288 289 289 289 290 290 290 290 289 289 289 289 289 289 289 289 289 289 289 289 289 289 288 288 288 288 288 288 288 288 288 288 288 288 287 287 287 287 287
281 281 281 281 281 281 281 281 281 281 281 282 282 283 284 284 284 285 285 285 285 285 285 285 285 285 285 286 286 286 286 286 286 286 286 286 286 286 287 287 287 287 287 287 287 287 287 288 288 289 289 289 290 290 290 290 289 289 289 289 289 289 289 289 289 289 289 289 289 288 288 288 288 288 288 288 288 288 288 288 288 287 287 287 287 287
281 281 281 281 281 281 281 281 281 281 282 283 283 284 284 284 285 285 285 285 285 285 285 285 285 285 285 285 286 286 286 286 286 286 286 286 286 286 286 287 287 287 287 286 286 287 287 287 287 288 289 289 289 289 289 290 290 290 290 289 289 289 289 289 288 288 288 288 288 288 288 288 288 288 288 288 288 288 288 288 288 287 287 287 287 287
281 281 281 281 281 281 281 281 281 282 283 284 284 284 285 285 285 285 285 285 285 285 285 285 285 285 285 286 286 286 286 286 286 286 286 286 286 286 286 286 286 286 286 286 286 287 286 286 286 287 288 288 289 289 289 289 289 289 289 289 289 289 289 288 288 288 288 287 287 287 287 287 287 287 287 287 287 288 288 288 288 287 287 287 287 287
281 281 281 281 281 281 281 281 282 283 284 284 285 285 285 285 285 285 285 285 285 285 285 285 286 286 286 286 286 286 286 286 286 286 286 286 286 286 286 286 286 286 286 286 286 286 286 286 286 287 287 287 288 289 289 289 289 289 289 289 289 289 288 288 288 288 287 287 287 287 287 287 286 286 287 287 287 287 287 287 287 287 287 287 287 287
281 281 281 281 281 281 281 282 283 284 284 284 285 285 285 285 285 285 285 285 285 285 285 286 286 286 286 286 286 286 285 285 285 285 286 286 286 286 286 286 286 286 286 286 286 286 286 286 286 286 287 287 287 287 288 288 288 288 288 288 288 288 288 288 288 287 287 287 286 286 286 286 286 286 286 286 286 286 286 286 287 287 287 287 287 287
281 281 281 281 281 281 281 282 283 284 284 285 285 285 285 285 285 285 285 285 285 285 286 286 286 286 286 286 286 285 285 285 285 285 285 285 285 285 285 286 286 286 286 285 286 286 286 286 286 286 286 286 286 286 287 288 288 288 287 287 287 288 288 288 287 287 287 287 286 286 286 286 286 286 286 286 286 286 286 286 286 286 286 286 286 286
281 281 281 280 281 281 282 283 283 284 285 285 285 285 285 285 285 285 285 285 285 285 285 285 285 285 286 286 286 285 285 285 285 285 285 285 285 285 285 285 285 285 285 285 285 285 285 285 286 286 286 286 285 285 286 287 287 287 287 287 286 286 287 287 287 287 286 286 287 286 286 286 286 286 286 286 286 286 286 286 286 286 286 286 286 286
281 281 280 280 281 281 282 283 284 284 284 285 285 285 285 285 285 285 285 285 285 285 285 285 285 285 286 286 286 286 286 285 285 285 285 285 285 285 285 285 285 285 285 285 285 285 285 285 286 285 285 285 285 285 286 286 287 287 287 286 286 285 286 286 286 286 286 286 286 286 286 286 286 286 286 286 286 286 286 286 286 286 286 286 286 286
281 281 280 280 281 281 282 283 284 284 284 285 285 285 285 285 285 285 285 285 285 285 285 285 285 285 285 285 286 286 286 286 286 285 285 285 285 285 285 285 285 285 285 285 285 285 285 285 285 285 285 285 285 285 285 286 286 286 286 286 285 285 286 286 286 286 286 286 286 286 286 285 285 285 286 286 286 286 286 286 286 286 286 286 286 286
281 280 280 280 281 282 283 283 284 284 284 284 285 285 285 285 285 285 285 285 285 285 285 285 285 285 285 285 286 286 286 287 286 286 285 285 285 284 285 285 285 285 285 285 285 285 285 285 285 285 285 285 285 285 286 285 285 286 286 285 285 285 285 286 286 285 285 286 286 286 285 285 285 284 284 285 285 285 285 286 285 285 286 286 286 286
281 281 280 281 281 282 283 284 284 284 284 284 285 285 285 285 285 284 284 284 284 285 285 285 285 285 285 285 286 286 287 287 287 287 286 286 285 285 284 284 284 284 284 285 285 285 285 285 284 284 284 284 285 285 286 285 285 285 285 285 285 285 285 286 285 285 285 285 285 285 285 284 284 283 283 284 284 284 285 285 285 285 285 285 285 285
281 281 281 281 282 283 283 284 284 284 284 284 284 284 284 284 284 284 284 284 284 284 285 285 285 285 285 286 286 286 286 287 287 287 287 286 286 286 285 285 285 284 284 284 284 285 285 285 285 285 285 284 285 285 286 286 285 285 285 285 285 285 285 285 285 285 285 285 285 284 284 283 283 282 283 283 283 284 284 284 284 284 284 284 285 285
281 281 281 282 282 283 284 284 284 284 284 284 284 284 284 284 284 284 284 284 284 284 284 284 285 285 286 286 286 286 286 286 286 287 287 286 286 286 286 286 285 285 285 285 285 285 285 285 285 285 285 285 285 285 285 285 285 285 285 285 285 285 285 285 285 285 284 284 284 284 283 282 282 282 282 282 283 283 283 283 284 284 284 285 285 285
281 281 281 282 283 283 284 284 284 284 284 284 284 284 284 284 284 284 284 284 284 284 284 285 285 285 285 285 286 286 286 286 286 286 286 286 286 286 286 286 286 286 285 285 285 285 285 285 285 285 285 285 285 285 285 285 285 285 285 285 285 284 284 284 285 284 284 284 283 283 283 282 282 282 281 282 282 283 283 284 284 284 285 285 285 285
281 281 282 282 283 283 284 284 284 284 284 284 284 284 284 284 284 284 284 284 284 285 285 285 285 285 285 285 285 285 285 285 286 286 286 286 285 285 286 286 286 286 285 284 284 284 284 284 284 285 285 285 285 285 285 285 285 285 285 285 285 284 284 284 284 284 284 283 283 283 283 282 282 282 282 282 282 282 283 283 284 284 284 285 285 285
Wind_Speed
18 18 18 18 16 15 14 12 11 11 12 14 17 20 22 23 23 24 24 25 25 26 26 27 27 27 27 27 26 25 23 22 20 19 19 19 19 20 21 21 21 20 19 18 18 18 17 17 16 16 16 16 17 17 17 18 18 18 18 17 17 17 17 17 17 17 16 16 17 17 17 17 17 18 19 20 20 20 20 20 20 20 21 21 21 21
16 16 16 15 14 12 11 10 10 9 11 12 15 17 19 21 22 22 22 23 23 24 24 24 24 24 23 22 21 19 18 17 17 16 17 17 17 18 18 17 17 17 17 17 17 17 17 17 16 16 16 17 17 17 17 17 17 17 17 17 17 17 17 17 17 17 17 18 18 19 19 20 20 21 21 22 22 22 22 21 21 20 20 19 19 18
14 14 13 12 11 9 8 8 8 8 9 10 12 13 14 15 16 17 17 18 19 19 19 19 19 18 17 17 16 15 15 15 15 14 14 14 14 14 14 14 15 16 17 17 17 17 17 17 17 17 17 17 16 16 16 16 16 16 16 16 16 16 16 16 16 17 17 18 18 19 20 20 21 21 21 21 21 21 20 20 19 19 18 18 17 17
12 12 11 10 8 7 6 6 7 7 8 9 10 10 11 11 11 12 12 13 14 14 14 14 13 13 13 13 13 13 13 13 12 12 11 10 11 11 13 14 15 16 16 17 17 18 18 18 17 17 16 16 16 15 15 16 15 15 14 14 14 14 14 14 15 15 16 16 17 18 18 19 19 19 19 19 18 18 17 17 17 17 17 17 17 17
10 9 9 7 6 5 5 5 6 7 7 8 8 9 9 9 9 9 10 10 10 10 10 10 10 10 11 11 11 11 11 10 10 9 9 10 11 13 14 15 16 17 17 17 18 18 18 17 16 15 15 14 14 14 14 14 14 14 13 13 14 14 14 15 15 16 16 16 16 17 17 17 17 16 16 16 16 15 16 16 16 17 17 17 17 16
8 7 6 5 5 5 5 5 5 6 6 7 7 7 7 8 8 8 8 8 8 8 9 9 9 9 10 10 10 10 9 9 8 8 9 11 12 14 15 16 17 17 18 18 18 17 16 15 14 13 12 12 12 12 13 13 14 14 15 16 17 17 17 18 18 17 17 17 16 16 16 15 15 15 15 15 15 14 15 15 15 16 16 16 16 15
5 5 5 5 5 5 5 5 5 5 5 5 6 6 6 6 7 7 7 7 8 8 9 9 10 10 10 10 10 9 9 8 8 9 10 12 13 15 16 17 18 18 18 18 17 16 15 13 13 12 12 12 12 13 14 14 15 16 17 18 19 19 19 19 18 18 17 17 16 16 15 15 15 15 14 14 14 14 14 14 14 15 15 15 15 15
5 5 5 5 5 5 5 5 4 4 4 5 5 5 5 6 6 7 7 8 8 9 9 10 10 11 11 11 10 9 9 8 9 10 12 13 15 16 17 18 19 19 19 18 18 17 16 15 15 15 15 14 15 16 17 17 18 19 19 20 20 19 19 18 18 17 17 16 16 15 15 15 14 14 14 14 14 14 14 14 15 15 15 15 15 15
6 6 6 5 5 5 5 5 5 5 4 4 4 5 5 6 6 7 8 8 9 9 10 10 11 11 10 10 9 9 9 9 10 12 14 15 16 18 18 19 19 19 19 19 18 18 18 18 18 17 17 18 18 18 19 19 20 20 20 20 19 18 18 17 17 16 16 15 15 15 15 15 15 15 15 15 15 15 15 15 15 15 16 16 16 15
6 6 6 6 6 6 5 5 5 6 5 5 5 6 6 6 7 7 8 8 9 9 10 10 10 9 9 9 8 9 10 11 12 14 15 16 17 18 19 19 19 19 19 19 19 19 19 18 18 18 19 19 19 19 20 20 20 20 19 19 18 17 17 16 16 15 15 15 14 15 15 15 15 15 15 15 15 16 16 16 16 16 16 16 16 16
6 6 5 5 6 6 6 6 6 7 7 7 7 7 7 7 8 8 7 8 8 8 9 9 8 8 8 9 9 10 11 13 14 15 16 17 17 18 19 19 20 20 19 19 18 18 17 17 18 18 18 19 19 19 19 19 19 18 18 17 17 16 16 15 15 14 14 14 14 15 15 15 15 16 16 16 16 16 16 16 16 16 16 16 16 15
7 6 6 5 6 6 6 6 7 7 7 7 7 7 7 7 8 8 8 7 8 8 8 8 8 9 9 10 11 12 13 14 15 16 16 17 17 18 19 19 19 19 19 18 17 16 16 16 17 17 17 18 18 18 18 18 17 17 16 16 16 15 15 14 14 14 14 14 15 15 15 16 16 16 16 16 16 16 16 17 17 17 16 16 16 15
8 8 7 6 6 6 6 6 6 7 7 7 6 6 6 6 7 7 7 8 8 8 8 9 9 10 11 12 13 14 15 16 16 17 17 17 17 17 18 18 19 18 18 17 16 16 16 16 16 16 16 17 17 17 17 16 16 16 15 15 15 15 14 14 14 14 15 15 15 15 16 16 16 16 16 16 16 16 17 16 16 16 16 15 15 15
9 9 8 7 6 6 6 5 5 5 6 6 6 6 7 7 7 7 8 9 9 9 10 11 11 12 13 13 14 15 16 17 17 17 17 17 17 17 17 18 18 17 16 16 15 15 15 16 16 16 16 16 16 16 16 15 15 15 15 15 14 14 14 14 15 15 15 16 16 16 16 16 16 16 16 16 17 17 17 17 16 16 16 16 15 15
9 9 7 6 6 6 6 6 5 5 6 6 6 6 7 7 8 8 9 10 11 11 12 12 13 13 14 14 15 15 16 17 18 18 18 17 16 16 16 16 16 16 15 15 15 15 15 16 16 16 16 16 16 15 15 15 15 14 14 14 14 14 14 15 15 15 16 16 16 17 17 17 17 17 17 17 17 17 17 17 17 17 17 17 17 17
10 9 8 7 7 7 7 7 6 6 6 7 7 7 8 9 10 10 11 12 13 13 14 15 15 15 15 15 15 16 16 18 19 19 19 17 15 14 14 15 15 14 14 14 14 15 16 16 16 16 16 16 15 15 15 14 14 14 14 14 14 14 15 15 15 16 16 16 17 17 17 17 17 17 18 18 18 18 17 17 17 17 17 17 18 18
10 10 9 9 9 9 9 9 8 8 8 8 8 9 10 11 12 12 13 14 15 15 16 16 17 17 17 16 16 16 17 18 20 20 20 17 14 12 13 14 14 14 13 14 15 15 16 16 16 16 16 15 15 14 14 14 14 14 14 14 14 14 15 15 16 16 17 17 17 17 17 17 18 18 18 18 18 18 18 18 18 18 18 18 18 18
11 11 11 11 10 10 11 10 9 9 9 9 10 11 11 12 13 14 15 16 16 17 17 18 18 19 20 19 18 17 18 19 20 21 19 16 12 10 11 13 14 14 13 14 15 16 16 16 16 16 15 14 14 14 14 14 14 14 14 14 15 15 15 16 16 16 17 17 17 17 17 17 18 18 18 18 18 18 18 18 18 19 19 19 19 19
12 13 12 12 11 11 11 10 10 10 10 11 11 12 13 14 15 16 17 17 18 19 19 19 20 20 21 21 20 19 19 20 20 20 18 14 10 9 10 12 13 13 13 14 14 15 16 16 16 15 14 14 14 14 14 14 14 14 14 15 15 15 16 16 16 17 17 17 17 17 18 18 18 18 18 18 19 19 19 19 20 20 20 20 21 21
13 13 12 12 11 11 11 10 11 12 12 12 13 14 15 16 17 17 18 19 19 20 20 20 21 21 21 21 21 20 19 19 19 19 16 13 10 9 10 12 13 13 13 13 14 15 16 16 15 15 14 14 14 14 14 14 15 15 15 15 15 16 16 16 16 17 17 17 18 18 18 18 18 19 19 19 20 20 20 21 21 21 21 22 22 22
13 13 12 12 11 11 11 11 12 12 13 14 15 16 17 18 18 19 20 20 20 21 21 21 21 21 21 21 20 19 18 18 18 17 16 13 10 9 10 11 12 12 12 12 14 15 15 15 15 15 15 15 15 15 15 15 15 15 15 15 15 16 16 16 16 17 17 18 18 18 19 19 19 19 20 20 20 21 21 21 22 22 22 23 23 23
13 13 13 12 12 12 12 13 14 14 15 15 16 17 18 19 19 20 20 20 21 21 21 21 21 20 19 19 18 17 16 16 16 16 15 14 11 9 10 11 12 12 12 12 13 14 15 15 15 14 15 15 15 15 15 15 15 15 15 16 16 16 16 16 17 17 17 18 18 19 19 19 20 20 20 20 21 21 22 22 22 23 23 23 24 24
14 14 14 13 13 13 14 14 15 16 17 17 17 18 18 19 19 20 20 20 20 20 20 19 19 18 17 17 16 15 14 15 15 15 15 15 13 11 10 11 12 12 12 12 13 14 14 14 14 14 15 15 15 15 15 15 15 16 16 16 16 16 16 16 17 17 18 18 19 19 20 20 20 20 21 21 21 22 22 23 23 24 24 24 25 25
14 14 14 14 14 14 15 15 16 17 18 18 18 18 18 18 18 18 18 18 18 18 18 18 17 16 15 14 13 13 12 13 14 15 15 15 14 13 12 12 13 13 12 12 12 13 13 13 13 14 15 15 15 15 15 16 16 16 16 16 16 16 16 17 17 18 18 19 19 20 20 20 21 21 21 22 22 22 23 23 24 24 24 25 25 25
14 13 13 14 14 14 15 15 15 16 17 18 18 18 18 18 18 18 18 17 17 17 17 16 16 14 13 11 11 10 11 12 13 14 15 16 15 14 12 13 13 13 12 11 11 12 12 12 13 14 15 15 15 16 16 16 16 16 15 15 15 16 16 17 18 18 19 19 20 20 21 21 21 22 22 22 23 23 23 24 24 24 25 25 25 25
14 13 13 13 14 14 15 15 15 15 16 16 17 17 18 18 18 18 18 17 17 18 17 17 16 14 12 11 10 10 10 11 13 14 15 16 15 14 13 13 13 13 12 11 11 11 11 12 13 14 15 15 16 16 16 15 15 15 15 15 15 16 17 17 18 19 19 20 20 21 21 21 22 22 22 23 23 23 23 24 24 24 24 25 25 25
15 15 15 15 15 16 16 16 16 16 15 15 16 16 17 17 18 18 18 18 18 18 17 17 16 14 13 12 12 11 11 12 13 14 15 15 15 14 13 13 13 13 13 12 11 11 11 12 13 14 15 15 15 15 14 14 13 13 13 14 15 16 17 17 18 19 19 20 20 21 21 22 22 22 22 23 23 23 23 23 23 24 24 24 24 24
16 16 17 17 17 17 16 16 16 16 16 15 15 15 16 17 18 18 18 18 17 17 17 16 16 15 14 14 14 13 12 13 13 14 14 14 14 14 14 13 13 13 13 13 12 12 12 13 14 14 14 14 14 13 12 11 11 12 13 14 15 16 16 17 18 18 19 19 20 21 21 22 22 22 22 22 23 23 23 23 23 24 24 24 24 24
17 18 18 18 18 18 17 16 16 15 15 15 14 15 16 17 18 18 17 17 17 17 16 16 15 15 15 15 15 14 13 12 12 13 13 13 13 14 14 14 13 13 14 14 13 12 12 13 13 13 12 12 10 10 9 10 11 12 13 14 15 16 16 16 17 17 18 19 20 20 21 21 22 22 22 22 22 23 23 23 23 24 24 24 24 24
17 18 19 19 19 18 17 16 15 15 14 14 14 15 16 16 17 16 16 16 16 16 16 16 15 16 16 16 16 15 13 11 11 12 13 13 14 15 14 14 13 13 14 14 14 14 12 11 11 10 9 9 9 9 10 11 12 14 14 14 15 15 15 15 16 17 17 18 19 20 20 21 21 22 22 22 22 23 23 23 23 24 24 25 24 24
17 17 18 18 18 17 17 16 15 14 14 14 14 14 14 15 15 15 15 15 15 15 15 16 16 16 16 17 18 18 15 11 11 12 13 14 15 15 14 14 13 13 13 14 15 15 14 12 10 10 10 10 11 12 13 13 14 14 14 14 14 14 14 14 15 16 16 17 18 19 19 20 21 21 21 22 22 22 23 23 24 24 25 25 25 25
15 16 16 17 17 16 16 15 15 14 14 14 14 14 14 14 14 14 14 14 14 15 15 15 16 16 16 17 18 18 17 13 12 12 13 14 15 15 14 13 13 12 12 13 14 15 14 15 15 14 14 14 14 14 14 14 14 14 14 14 13 13 14 14 14 15 15 16 17 18 18 19 20 20 21 21 22 22 23 23 24 24 25 26 26 26
14 15 15 16 16 15 15 15 14 14 14 14 14 14 14 14 14 14 14 14 14 14 15 16 16 17 17 17 17 17 16 14 12 12 13 14 15 15 14 13 13 13 12 13 14 15 15 18 19 19 18 17 16 16 15 15 15 15 15 14 14 14 14 14 15 15 15 15 16 17 17 18 19 20 20 21 22 22 23 23 24 24 25 26 26 27
14 14 15 15 15 15 15 14 14 14 14 14 14 14 14 13 13 13 14 14 14 15 15 16 16 17 17 17 17 17 16 14 12 12 13 14 15 15 15 14 14 13 13 14 14 16 17 19 20 21 21 20 19 18 17 17 16 16 16 15 15 15 15 15 15 15 15 15 15 15 16 17 18 19 20 21 22 23 23 23 24 24 25 25 26 27
13 14 14 15 15 15 14 14 14 14 14 14 14 14 14 13 13 13 13 14 14 15 15 16 16 17 17 17 18 17 16 14 13 13 13 14 15 15 16 15 15 14 15 15 16 16 17 18 19 21 22 22 21 20 19 18 18 17 17 17 16 16 16 16 16 15 15 15 14 15 15 16 17 18 20 21 22 22 23 23 24 24 24 25 26 27
13 14 14 14 14 14 14 14 14 14 14 14 14 14 13 13 13 13 13 14 14 15 15 16 16 16 17 17 17 17 16 14 13 12 13 14 15 15 16 16 16 15 16 16 17 17 18 19 19 20 21 22 22 21 20 19 19 19 18 18 18 17 17 17 17 17 17 16 16 15 15 16 16 18 19 20 21 22 23 23 24 24 24 25 26 26
13 13 13 14 14 14 13 13 13 13 13 13 13 13 13 13 13 13 13 14 14 15 15 16 16 16 16 17 17 16 15 14 13 13 13 14 15 15 16 17 16 16 16 16 17 18 18 19 20 20 21 21 22 22 21 20 20 20 20 19 19 19 19 19 19 19 19 18 18 17 17 16 17 17 18 19 20 21 22 23 23 24 25 25 26 26
13 13 13 13 13 13 13 13 12 12 13 12 12 12 12 13 13 13 13 14 14 15 15 16 16 16 17 17 17 16 15 15 14 14 14 15 15 16 17 17 17 17 17 17 17 17 18 19 20 21 21 21 21 21 22 22 22 21 21 21 21 21 21 21 21 21 20 20 20 19 18 18 18 18 18 19 19 20 21 22 23 24 24 25 26 26
13 13 12 12 12 12 12 12 12 12 12 11 12 12 12 12 12 13 13 14 14 15 15 16 16 16 16 17 16 16 16 15 15 15 16 16 17 17 17 17 17 17 17 17 17 17 17 18 19 20 21 22 22 22 22 22 22 23 23 23 23 22 22 22 22 21 21 21 20 19 19 19 18 18 18 19 20 20 21 22 23 23 24 25 26 27
12 12 12 12 12 11 11 11 11 11 11 11 11 11 11 12 13 13 13 14 14 15 15 16 16 16 16 16 16 16 16 16 16 16 17 17 17 18 18 18 17 17 16 16 16 17 17 17 18 19 20 21 22 23 23 23 23 23 24 25 25 24 23 22 22 21 21 20 19 19 18 18 18 18 18 19 20 21 21 22 23 24 24 25 26 27
11 11 11 11 11 11 11 11 10 10 10 10 10 11 12 12 13 13 13 14 14 15 16 16 16 16 16 16 16 16 16 16 17 17 17 18 18 18 18 18 17 16 16 16 16 17 17 17 17 18 19 21 22 23 24 24 24 24 24 25 25 25 24 23 22 21 20 19 18 18 18 17 17 18 18 19 20 21 22 22 23 24 24 25 26 27
10 11 11 11 11 11 10 10 10 10 10 10 11 11 12 12 13 13 13 14 14 15 16 16 17 17 17 17 16 16 16 16 17 17 18 18 18 18 18 17 17 16 16 16 16 17 17 17 17 18 19 20 22 23 25 25 24 24 24 24 25 25 24 23 21 20 19 18 18 17 17 17 17 18 19 19 20 21 21 22 22 23 23 24 25 25
10 11 11 11 11 10 10 10 10 10 10 11 11 12 12 13 13 14 14 14 15 15 16 17 18 18 18 18 17 16 16 16 17 17 17 17 17 17 17 16 16 16 16 16 16 16 17 17 17 18 19 20 21 23 25 25 25 24 23 23 23 24 24 23 21 20 19 18 18 17 17 18 19 19 20 21 21 21 21 21 21 21 22 22 22 23
11 11 11 11 11 11 10 10 10 10 11 11 12 12 13 13 14 14 15 15 16 16 17 17 18 18 19 19 18 17 16 15 15 16 16 16 16 15 15 15 16 16 15 15 16 16 17 17 18 18 18 19 21 23 24 24 24 24 23 22 22 22 23 23 22 21 20 19 19 19 19 19 20 21 22 22 22 22 21 21 21 21 20 20 21 21
11 11 11 11 11 11 11 10 10 11 11 12 12 13 13 14 14 15 15 16 17 17 18 18 18 18 18 18 18 17 16 14 13 13 13 13 14 14 15 15 15 15 15 16 16 16 17 18 18 18 19 20 21 22 23 24 24 24 23 22 21 22 22 22 22 22 22 21 21 21 21 21 22 23 23 24 23 23 23 23 22 22 21 20 21 21
11 11 11 11 11 11 11 11 11 11 11 12 13 13 14 14 15 15 16 17 18 18 19 19 18 17 17 17 16 15 14 13 12 11 10 11 12 13 14 14 15 15 15 16 16 16 17 17 18 18 19 20 22 23 23 23 24 23 23 22 22 22 23 23 23 23 23 23 23 23 23 23 24 25 26 26 26 26 25 25 25 24 23 23 22 22
11 11 11 11 11 11 10 11 11 11 12 12 13 13 14 14 15 16 17 18 18 18 18 18 17 16 16 15 15 14 13 13 12 11 10 10 11 11 12 13 14 14 15 15 16 17 17 18 18 19 20 21 22 23 23 23 23 22 22 22 23 23 24 24 24 24 24 24 25 25 25 25 26 26 27 28 28 28 28 27 26 25 25 24 23 22
11 11 11 10 10 10 10 10 11 11 12 12 13 14 14 14 15 16 16 17 17 17 17 16 15 15 14 14 14 13 13 13 13 13 13 12 12 12 12 13 13 14 14 15 16 17 18 18 19 19 20 21 22 23 24 23 22 22 22 23 24 24 25 25 25 25 25 25 26 26 26 26 27 27 28 29 30 30 29 28 27 26 25 23 23 22
11 11 11 10 10 10 10 10 11 12 12 13 13 13 14 14 15 15 15 15 15 15 15 14 14 13 13 13 13 13 14 14 14 14 14 14 14 15 14 14 14 15 15 16 17 18 19 21 21 21 21 21 22 23 23 23 22 22 23 24 24 25 26 26 26 26 26 27 27 27 26 26 27 27 28 29 31 31 30 29 27 26 25 23 21 20
11 11 10 10 10 10 10 11 11 12 13 13 13 13 13 14 14 14 14 13 13 13 13 13 13 13 13 14 14 14 15 15 15 15 15 15 15 16 16 16 16 17 18 18 20 21 22 23 24 24 23 22 21 21 22 23 23 24 24 25 25 26 26 27 27 27 27 28 28 27 27 27 27 27 27 28 29 30 30 29 28 27 25 23 21 19
10 10 10 10 10 10 11 11 11 12 12 13 13 13 13 13 13 13 13 12 12 12 12 12 13 13 14 15 15 16 16 16 17 16 16 16 16 16 17 17 17 18 19 20 21 22 23 24 25 25 24 23 21 20 20 22 23 25 26 26 26 26 26 27 28 28 28 29 29 28 28 28 28 27 26 27 28 29 30 30 29 28 26 23 21 20
Wind_Direction
299 304 306 309 310 311 310 308 305 302 296 288 284 283 282 280 278 276 274 272 271 269 268 268 268 268 268 269 269 270 271 271 271 270 268 266 265 264 264 264 265 267 269 272 274 276 278 279 281 282 282 283 283 282 282 281 280 278 276 273 271 269 267 263 262 261 259 256 255 255 256 256 255 253 252 250 249 250 250 251 252 253 254 254 254 254
302 305 307 308 308 308 307 305 302 298 293 287 282 280 279 278 277 275 274 273 272 270 269 269 269 269 269 270 270 270 270 269 268 266 265 264 264 266 268 271 273 274 276 277 278 279 280 280 281 280 280 279 278 278 278 278 277 277 275 273 271 270 268 265 263 261 259 257 255 254 254 254 254 255 255 255 256 256 257 258 259 260 261 262 262 263
304 305 305 304 303 305 306 304 298 290 284 280 277 275 273 273 272 271 269 268 267 267 267 267 268 268 269 269 269 269 268 267 266 266 267 269 272 274 275 275 275 275 276 277 278 278 279 279 278 278 277 276 276 275 274 274 275 275 275 275 275 274 273 271 270 267 265 263 262 260 259 259 260 261 261 262 262 262 263 263 263 264 264 264 263 263
302 301 300 300 301 302 303 300 293 284 277 274 274 273 272 271 269 267 265 263 263 265 266 266 266 267 267 267 267 268 268 269 269 270 271 272 271 270 269 269 270 272 274 276 277 278 279 279 278 277 276 275 275 274 273 273 274 275 276 276 275 274 273 273 271 271 271 270 270 269 268 268 267 267 266 266 265 264 263 263 262 261 261 260 260 259
300 299 299 303 307 308 304 298 292 285 281 279 278 278 278 277 275 273 271 269 268 268 268 268 267 266 266 267 269 270 271 272 272 272 270 267 265 266 267 270 272 275 276 278 279 280 279 279 278 277 276 275 274 273 273 274 273 271 268 266 263 261 261 261 262 264 267 268 269 270 270 270 270 269 268 266 264 262 260 259 258 257 257 258 258 259
302 304 308 316 320 317 311 305 298 293 291 288 286 285 283 282 281 279 278 276 274 273 272 272 272 272 273 274 275 275 276 276 275 272 270 269 270 271 273 275 276 277 278 279 279 279 278 277 275 273 271 270 269 268 266 264 261 258 256 254 254 255 256 259 262 265 267 268 268 268 268 268 268 267 267 265 264 262 260 259 258 258 258 258 259 260
313 319 327 335 337 331 324 317 310 304 300 296 293 290 287 283 281 279 276 275 275 276 277 278 278 279 279 280 281 281 280 280 278 276 274 274 274 275 276 277 277 278 278 279 278 276 272 268 263 258 255 252 251 250 249 249 250 251 252 254 257 260 263 266 269 271 272 273 272 272 271 271 270 270 270 269 268 267 265 264 264 263 263 262 263 263
338 339 342 347 346 340 334 326 318 312 306 299 293 290 285 280 276 274 273 274 274 274 276 277 277 278 279 281 283 283 282 281 279 276 275 275 275 276 276 276 277 277 278 278 276 271 266 261 256 251 247 244 243 243 245 248 251 254 257 260 264 267 271 273 275 276 276 276 275 275 274 274 274 274 273 273 272 272 271 271 270 270 269 268 267 266
350 349 346 344 343 339 332 323 316 311 306 296 289 284 281 279 276 275 274 273 272 272 272 273 275 277 278 281 283 283 282 279 277 276 276 276 277 277 278 278 278 279 279 278 275 271 267 263 259 255 251 249 249 250 252 255 258 262 265 268 271 274 276 277 278 278 277 276 275 274 274 274 274 274 274 275 275 274 274 274 273 273 273 272 271 270
349 347 342 335 330 327 322 313 307 304 302 296 289 284 280 275 273 271 269 270 271 272 273 274 277 281 284 284 282 281 279 277 276 277 278 279 281 282 282 282 282 281 280 278 275 273 270 267 264 261 258 256 256 258 261 264 267 270 273 275 277 278 278 278 278 277 275 274 273 273 272 273 273 274 275 276 276 276 276 276 276 276 275 275 274 273
342 337 331 322 317 314 309 301 296 294 293 290 285 281 276 270 268 268 270 274 277 277 279 280 282 285 288 286 282 279 277 277 277 277 279 282 284 286 287 287 286 284 282 280 277 274 271 268 266 264 262 262 263 265 268 271 274 276 278 279 279 278 277 276 275 274 273 272 271 271 271 272 273 274 275 276 276 277 277 278 278 279 279 279 279 279
328 324 318 309 303 300 296 290 286 284 282 279 276 274 273 271 269 271 275 281 284 286 287 286 285 284 285 284 283 281 278 277 278 279 280 283 286 288 289 288 287 285 282 280 277 273 270 267 265 264 265 266 267 270 272 274 277 278 278 277 276 275 274 273 272 271 271 270 271 271 272 272 273 274 275 276 276 276 277 278 279 280 281 281 283 284
318 316 313 306 297 288 283 279 278 277 274 268 265 266 273 278 278 277 278 282 285 288 289 289 288 286 284 283 284 283 282 281 280 280 282 285 288 290 289 287 284 282 280 277 274 270 268 266 265 265 266 268 270 271 273 275 276 276 275 273 272 271 270 270 270 270 270 271 271 272 272 273 274 275 276 276 277 277 277 278 278 279 280 281 282 282
312 312 310 304 296 287 281 275 272 270 269 269 268 270 274 279 282 283 284 285 287 288 288 287 288 288 287 286 285 285 284 284 284 284 285 288 290 290 287 283 280 277 275 273 270 267 266 266 266 267 268 269 271 272 272 273 272 271 269 268 267 267 268 268 269 270 271 272 273 273 274 274 276 276 277 278 278 279 279 279 278 278 279 280 280 280
306 305 302 295 288 284 281 279 275 275 276 281 282 282 282 284 285 287 288 290 291 291 290 288 288 289 290 289 288 287 287 288 289 289 289 291 291 290 286 281 276 273 271 269 267 265 265 266 267 268 269 270 270 270 270 268 267 265 264 264 264 265 267 269 271 272 273 274 274 275 275 276 277 278 279 279 280 280 281 281 281 281 282 282 282 283
297 295 288 280 275 275 276 275 273 275 281 285 287 288 291 292 292 293 294 295 295 296 296 295 293 293 292 291 290 291 292 293 293 293 294 293 293 291 283 278 274 271 268 266 265 265 266 267 268 269 269 269 269 268 266 264 262 261 261 262 264 266 269 271 273 274 275 276 276 277 277 279 280 280 281 281 282 282 283 283 284 284 285 285 286 286
291 287 281 275 271 270 272 273 272 273 279 283 286 289 292 295 297 298 298 298 299 299 299 298 298 298 297 295 294 295 296 296 296 296 296 295 295 290 280 275 272 269 267 266 265 266 267 267 268 268 268 267 266 265 262 261 260 260 261 263 266 269 271 273 275 275 276 277 278 278 279 280 281 281 282 283 283 284 284 284 285 285 286 286 287 287
287 284 281 277 274 273 274 274 274 275 279 284 289 292 294 296 297 297 298 298 298 298 298 298 298 298 298 299 298 298 299 298 297 296 296 295 294 288 278 273 271 269 267 266 265 266 266 266 267 267 267 266 264 261 260 259 259 260 262 264 268 271 273 274 275 277 278 279 280 280 281 281 281 281 282 282 283 283 284 284 285 285 285 286 286 286
287 286 285 283 282 283 285 286 286 285 287 290 293 295 296 294 294 294 294 294 295 295 296 297 297 296 297 298 298 298 300 299 297 296 295 293 291 285 277 272 271 270 268 265 264 264 264 264 265 265 264 263 261 259 258 257 258 260 262 265 268 271 273 275 276 278 279 280 280 281 280 281 281 281 281 281 282 282 283 283 284 284 285 285 285 285
294 295 295 294 294 296 299 296 292 291 293 294 293 291 289 288 288 288 289 290 291 292 293 294 294 295 296 297 298 299 300 298 296 294 293 290 288 285 277 273 271 269 267 263 261 261 261 262 262 262 261 260 258 256 256 256 257 260 263 266 269 272 274 275 276 277 278 278 278 279 279 279 279 279 279 280 281 281 282 283 283 284 284 284 285 285
302 301 300 298 297 297 296 293 293 294 292 289 287 285 284 284 284 285 287 289 290 291 292 293 293 294 295 297 298 299 298 296 294 293 290 287 285 284 279 273 271 268 264 260 258 258 258 259 259 259 257 256 255 255 255 256 258 261 264 267 270 272 273 274 274 275 275 276 276 276 277 277 277 278 278 279 279 280 281 282 283 283 284 284 285 285
302 300 298 298 295 291 290 291 291 290 288 286 285 285 285 286 288 289 290 291 291 292 292 292 293 294 296 296 297 297 295 293 292 291 290 287 285 284 280 275 272 269 263 257 255 255 256 256 256 255 254 254 254 254 255 257 260 263 266 268 270 271 271 272 272 273 273 274 275 275 276 276 276 277 277 278 278 279 280 281 282 283 283 284 284 285
300 298 297 296 294 291 289 289 291 292 292 290 289 289 290 291 292 292 292 292 292 293 293 293 294 295 295 295 294 293 292 289 288 288 289 287 286 285 282 279 275 272 266 258 254 253 252 252 252 251 252 252 253 255 257 260 262 265 267 268 268 268 268 269 270 271 272 273 274 275 275 276 276 276 277 277 278 279 279 280 281 282 283 284 284 285
299 298 299 299 297 295 294 294 294 294 294 293 293 294 294 294 294 294 294 294 295 296 297 296 296 296 295 294 292 291 289 287 286 287 287 287 286 286 285 282 279 274 268 262 256 252 249 247 247 249 251 253 255 257 260 262 265 266 266 266 266 265 266 267 268 270 271 273 274 274 275 275 275 276 276 277 278 278 279 280 281 282 282 283 284 285
298 298 298 297 296 294 292 291 290 290 291 294 296 297 297 297 297 298 298 300 302 303 303 302 301 301 301 296 292 289 287 285 285 287 287 287 287 288 288 284 281 276 269 262 256 252 248 245 245 248 251 254 257 260 263 265 266 266 265 263 263 264 265 267 269 271 272 273 273 274 274 274 275 275 276 276 277 278 278 279 280 281 282 283 283 285
297 296 294 292 289 286 284 282 282 284 287 290 293 296 297 298 298 298 300 302 304 306 306 306 305 305 304 298 294 292 291 288 286 286 287 287 287 287 287 284 281 277 271 263 257 254 250 247 247 250 254 257 260 263 265 265 265 263 262 261 263 265 267 270 271 272 273 273 273 274 273 274 274 274 275 276 276 277 278 279 279 280 281 282 283 284
296 295 292 289 286 284 282 281 282 283 283 285 288 291 293 293 293 294 295 298 302 304 303 303 304 304 303 299 297 297 298 297 293 288 286 286 286 286 286 283 281 278 273 266 261 258 256 254 254 256 258 260 263 264 264 262 261 260 260 263 266 269 272 273 274 274 274 274 274 274 274 274 274 274 275 275 276 277 278 278 279 280 281 282 283 284
296 295 293 291 289 286 285 285 285 284 284 284 283 283 284 286 287 289 292 297 300 300 299 301 303 303 303 303 302 301 303 304 298 290 286 286 286 286 285 283 282 281 278 272 266 263 264 264 263 263 263 263 263 262 260 259 259 261 266 270 273 275 277 277 277 276 275 275 275 274 274 274 274 275 275 276 276 277 278 278 279 280 280 281 282 284
294 294 293 292 291 291 290 290 288 287 285 284 281 278 278 282 284 287 292 296 297 296 296 299 300 302 302 302 301 301 305 305 298 291 288 288 287 285 285 285 286 286 285 280 273 268 270 270 269 266 265 263 261 259 260 263 268 273 277 280 281 282 282 281 279 278 277 276 275 274 274 274 274 275 275 276 276 277 277 278 278 279 279 280 281 282
290 290 290 290 292 293 294 294 292 290 287 285 283 280 280 283 286 288 291 292 292 291 293 295 298 300 301 302 301 301 305 305 298 293 292 290 287 285 284 286 288 289 290 290 285 280 278 274 271 268 267 266 266 269 275 280 283 286 287 287 287 286 284 282 280 278 277 275 274 274 273 273 273 274 274 274 275 275 276 276 277 277 278 279 280 281
285 285 286 287 290 292 293 294 293 292 289 287 285 283 283 284 285 285 286 287 287 288 291 293 295 298 300 301 300 300 303 302 299 296 292 289 286 285 285 286 288 290 293 297 298 296 292 286 279 276 278 280 283 286 289 291 292 292 291 290 287 285 284 282 280 278 276 275 273 273 272 272 272 272 272 272 273 273 274 274 275 276 277 278 279 280
283 283 284 286 288 289 291 292 292 291 290 289 287 285 284 283 283 283 283 284 286 288 289 291 293 295 297 297 296 296 297 297 298 296 291 288 286 285 286 288 289 291 294 297 300 300 298 296 293 290 290 291 292 293 295 296 297 296 295 293 291 289 288 287 285 283 280 277 275 273 272 271 270 270 270 270 270 271 271 272 273 274 275 277 278 279
282 282 284 285 286 288 289 290 290 290 289 288 287 286 284 283 282 282 282 284 285 287 289 290 291 293 294 294 292 292 293 295 296 294 290 288 287 287 288 290 292 294 295 297 297 297 297 299 299 299 299 298 299 300 302 303 303 303 303 302 300 299 298 297 295 292 288 284 280 276 273 270 268 267 267 266 267 267 268 269 270 272 273 275 276 277
281 281 282 283 284 285 287 288 289 289 288 287 286 285 283 282 281 281 282 283 285 286 287 288 289 290 291 291 290 289 290 293 294 292 288 287 287 288 290 292 294 295 297 297 297 297 297 299 301 303 303 303 305 307 309 310 310 310 310 310 308 307 306 305 302 299 295 291 286 280 275 271 267 265 264 264 264 264 265 266 267 268 270 271 273 275
282 281 280 280 281 282 284 286 287 287 286 285 284 283 282 281 281 281 282 283 284 285 285 287 288 288 289 289 289 289 290 291 291 287 284 284 286 288 290 291 293 296 296 297 297 298 299 300 301 303 304 305 306 308 311 313 314 314 314 313 312 311 310 308 306 303 300 296 290 284 278 273 268 265 263 262 262 262 262 263 263 264 265 267 269 271
284 282 281 280 281 282 283 284 285 284 284 283 282 282 281 281 281 282 282 283 283 283 284 285 285 286 287 287 287 287 289 290 288 284 281 282 284 286 288 289 292 294 295 296 297 299 299 300 301 302 303 304 306 308 311 312 313 314 314 314 313 312 312 310 308 306 303 300 295 290 284 277 272 268 265 263 262 261 261 260 260 261 261 263 265 268
285 283 282 281 282 283 284 284 284 283 282 282 281 281 281 282 282 282 282 283 283 283 283 283 284 284 284 285 285 286 287 288 285 282 280 280 282 283 284 287 290 292 294 295 296 298 299 300 300 301 302 303 305 308 311 312 312 313 314 314 314 314 313 312 310 308 306 303 300 295 290 284 278 273 269 266 263 262 260 260 260 260 260 261 263 265
284 282 282 282 283 284 285 285 284 283 281 281 280 280 280 281 282 282 282 283 283 283 283 283 283 282 282 282 282 283 284 283 283 281 280 279 280 282 283 285 288 291 292 293 295 296 298 299 300 302 303 304 306 308 311 312 312 313 313 314 313 314 314 313 312 310 308 306 302 298 294 290 285 279 275 271 267 265 263 261 260 260 260 261 263 264
283 281 281 282 283 284 284 283 282 281 279 278 278 278 278 279 280 281 282 282 282 282 282 282 281 280 279 279 279 280 281 282 282 281 280 280 281 282 283 285 287 289 291 292 292 293 294 296 298 300 303 305 307 308 309 311 312 313 313 312 312 312 313 313 312 310 309 307 304 301 297 294 290 286 281 277 273 271 268 265 263 262 262 263 263 264
283 281 281 282 282 281 281 280 278 276 275 274 274 275 276 278 279 280 280 281 281 281 281 281 280 280 279 279 280 281 282 282 283 282 282 282 283 283 284 285 287 288 289 290 290 291 292 294 296 299 302 305 308 309 309 310 312 314 314 313 313 313 313 312 311 310 309 308 306 304 301 298 294 290 286 282 279 276 274 271 269 268 267 267 268 268
283 282 281 280 279 279 278 277 275 272 271 271 272 274 275 276 277 278 279 280 281 282 283 283 284 284 284 284 284 285 285 285 284 284 284 284 284 284 284 285 285 286 287 287 287 288 290 293 296 299 303 306 308 308 308 310 312 314 315 315 314 313 311 310 310 311 310 309 308 306 304 301 298 294 290 286 282 280 278 277 276 274 273 272 272 273
284 282 280 278 277 277 275 274 272 271 271 272 274 276 276 278 279 281 282 284 285 286 288 289 289 290 290 289 288 287 286 285 284 284 284 284 284 283 283 282 282 283 283 284 285 287 289 292 295 299 303 306 308 308 308 309 311 314 315 315 314 311 309 309 310 312 312 310 309 308 307 305 302 297 293 289 286 284 282 281 280 279 278 277 276 276
283 281 278 277 276 275 273 271 271 271 273 275 277 279 280 282 284 286 289 291 292 293 293 293 292 292 290 288 285 282 281 281 282 283 282 282 281 280 279 279 279 279 280 282 284 286 289 291 294 298 302 305 306 306 307 309 312 314 315 316 316 315 313 312 312 313 312 311 311 311 311 309 306 302 297 294 290 288 286 285 283 282 281 281 280 279
281 278 277 276 275 273 271 271 271 273 276 278 280 283 285 288 291 294 296 298 300 300 299 297 295 293 290 287 284 282 279 279 279 280 279 278 277 275 275 274 275 276 278 279 281 284 288 291 294 298 302 304 304 305 306 309 313 315 316 316 316 315 313 314 315 316 315 314 314 314 315 314 310 306 302 298 296 294 293 292 289 288 286 285 284 283
282 280 278 277 275 273 272 272 274 277 279 282 285 288 291 294 297 300 303 305 306 306 304 303 300 297 294 291 289 288 285 283 281 279 277 276 274 273 272 272 273 274 276 277 278 281 285 289 294 298 302 302 303 304 307 311 314 316 317 317 316 315 313 314 316 318 318 318 318 318 319 318 315 312 308 306 304 304 303 302 301 299 297 296 294 292
283 281 279 277 276 275 275 276 278 281 284 288 291 294 297 300 303 306 308 309 310 310 309 307 305 303 300 298 296 295 292 290 287 283 279 276 274 274 274 274 274 274 276 277 280 283 286 290 295 299 301 302 303 305 307 311 315 317 317 318 317 316 315 316 318 320 320 321 321 322 322 321 320 317 315 313 312 311 309 309 308 308 306 305 304 303
285 282 280 278 277 276 277 279 282 285 289 293 296 299 301 305 308 311 312 313 313 313 311 310 309 308 306 305 304 303 300 297 295 293 289 283 278 276 276 276 277 277 278 280 283 286 289 293 296 299 301 302 304 306 309 312 314 316 317 318 317 316 316 317 319 321 321 322 323 324 324 324 322 319 316 315 314 312 311 310 310 309 309 309 308 308
288 286 282 280 278 278 279 282 285 289 292 295 299 302 305 308 311 313 314 315 314 314 313 313 313 311 310 310 310 310 308 305 302 300 298 295 291 286 284 283 284 284 285 287 289 291 293 295 297 299 300 302 303 306 310 313 314 316 316 317 316 316 317 318 319 321 321 322 322 323 323 322 320 317 315 314 312 310 310 309 309 308 308 309 309 308
290 288 285 282 280 279 280 284 288 291 294 297 301 305 308 310 312 313 313 313 313 313 314 315 316 315 316 316 317 317 316 313 310 307 304 302 300 297 296 296 296 297 298 298 299 300 300 300 300 300 301 303 305 307 310 313 314 315 316 315 315 316 317 318 319 320 320 320 320 320 320 317 315 313 312 309 308 307 307 307 306 306 307 308 308 307
289 287 285 283 282 282 284 287 290 293 296 299 303 306 309 310 310 310 310 309 309 311 313 316 318 319 320 321 322 322 321 318 315 312 309 307 305 303 303 304 306 309 310 309 309 309 308 306 305 303 303 304 305 307 309 311 313 314 314 314 314 315 315 315 317 318 318 318 317 316 315 312 310 309 307 305 304 305 306 306 306 306 308 310 311 309
286 284 283 281 282 283 286 289 292 295 298 301 304 307 308 308 308 308 307 307 308 310 314 317 320 322 322 322 322 322 320 319 317 315 313 310 309 307 307 308 312 315 316 315 314 314 313 312 309 306 304 304 306 308 308 309 311 312 312 312 313 313 313 313 314 316 316 315 314 312 311 309 307 307 305 304 303 304 306 307 307 308 310 312 314 312